This demonstration page uses our WeatherBlox Daily Observations layout. Learn more.

Left ArrowRight Arrow

34.16533, -84.80231

Hourly Observations for October 30, 2019

Temp ( °F °C ) Dew Point ( °F °C ) Humidity (%) Winds ( mph kmh ) Pressure ( in mb ) Visibility ( mi km ) Precip ( " mm )
12:53 am 00:53 Cloudy 68 20 64 17.8 87 87 E 3 6 30.11 1020 10 16 0.00 0.00
1:07 am 01:07 Cloudy 68 20 64 17.8 87 87 VRB 6 9 30.12 1020 8 13 0.00 0.00
1:53 am 01:53 Cloudy 68 20 64 17.8 87 87 Calm 30.11 1020 10 16 0.00 0.00
2:53 am 02:53 Cloudy 68 20 64 17.8 87 87 VRB 6 9 30.09 1019 10 16 0.00 0.00
3:36 am 03:36 Mostly Cloudy 67 19.4 65 18.3 93 93 ESE 7 11 30.09 1019 10 16 0.00 0.00
3:53 am 03:53 Mostly Cloudy 67 19.4 65 18.3 93 93 ESE 6 9 30.07 1018 10 16 0.01 0.25
4:41 am 04:41 Cloudy 68 20 65 18.3 90 90 VRB 6 9 30.08 1019 10 16 0.00 0.00
4:49 am 04:49 Cloudy 68 20 64 18 88 88 SE 6 9 30.08 1019 10 16 0.00 0.00
4:53 am 04:53 Cloudy with Light Rain 68 20 65 18.3 90 90 SE 7 11 30.06 1018 8 13 0.00 0.00
5:53 am 05:53 Cloudy with Light Rain 68 20 66 18.9 93 93 ESE 5 7 30.07 1018 8 13 0.01 0.25
6:05 am 06:05 Cloudy with Light Rain 68 20 66 18.9 93 93 VRB 5 7 30.08 1019 4 6 0.02 0.51
6:37 am 06:37 Cloudy 68 20 66 18.9 93 93 ESE 6 9 30.08 1019 10 16 0.02 0.51
6:53 am 06:53 Cloudy 68 20 66 18.9 93 93 VRB 5 7 30.07 1018 10 16 0.02 0.51
7:53 am 07:53 Cloudy with Light Rain 69 20.6 66 18.9 90 90 VRB 6 9 30.06 1018 9 14 0.02 0.51
8:53 am 08:53 Cloudy with Light Rain 69 20.6 67 19.4 93 93 E 3 6 30.06 1018 8 13 0.04 1.02
9:46 am 09:46 Cloudy with Light Rain 69 20.6 67 19.4 93 93 Calm 30.07 1018 4 6 0.04 1.02
9:53 am 09:53 Cloudy with Rain 69 20.6 67 19.4 93 93 SE 5 7 30.07 1018 3 5 0.08 2.03
9:55 am 09:55 Cloudy with Heavy Rain 69 20.6 67 19.4 93 93 Calm 30.08 1019 2 2 0.05 1.27
10:04 am 10:04 Cloudy with Heavy Rain 69 20.6 67 19.4 93 93 ESE 6 9 30.08 1019 1 1 0.18 4.57
10:12 am 10:12 Cloudy with Rain 69 20.6 67 19.4 93 93 E 6 9 30.07 1018 2 3 0.23 5.84
10:15 am 10:15 Cloudy with Light Rain 69 20.6 67 19.4 93 93 Calm 30.07 1018 3 5 0.23 5.84
10:20 am 10:20 Cloudy with Light Rain 69 20.6 67 19.4 93 93 Calm 30.07 1018 8 13 0.23 5.84
10:39 am 10:39 Cloudy with Light Rain 70 21.1 67 19.4 90 90 E 5 7 30.06 1018 10 16 0.24 6.10
10:53 am 10:53 Cloudy with Light Rain 70 21.1 68 20 93 93 ESE 3 6 30.04 1017 10 16 0.24 6.10
10:58 am 10:58 Cloudy with Light Rain 70 21.1 68 20 93 93 E 5 7 30.05 1018 10 16 0.00 0.00
11:16 am 11:16 Cloudy 71 21.7 68 20 90 90 ESE 6 9 30.05 1018 10 16 0.00 0.00
11:24 am 11:24 Cloudy 70 21.1 68 20 93 93 ESE 8 13 30.05 1018 10 16 0.00 0.00
11:40 am 11:40 Cloudy with Heavy Rain 70 21.1 68 20 93 93 ESE 7 11 30.04 1017 2 3 0.10 2.54
11:50 am 11:50 Cloudy with Rain 70 21 68 20 94 94 SSE 5 7 30.05 1018 2 3 0.15 3.81
11:53 am 11:53 Cloudy with Heavy Rain 70 21.1 68 20 93 93 SE 7 11 30.04 1017 2 3 0.20 5.08
12:20 pm 12:20 Cloudy with Rain 71 21.7 68 20 90 90 VRB 3 6 30.04 1017 2 3 0.23 5.84
12:24 pm 12:24 Cloudy with Light Rain 71 21.7 69 20.6 94 94 NNW 5 7 30.03 1017 3 5 0.24 6.10
12:33 pm 12:33 Cloudy with Light Rain 71 21.7 69 20.6 94 94 Calm 30.04 1017 7 11 0.24 6.10
12:53 pm 12:53 Cloudy with Light Rain 71 21.7 69 20.6 94 94 ESE 5 7 30.02 1017 6 10 0.24 6.10
1:22 pm 13:22 Cloudy with Rain 72 22.2 69 20.6 91 91 SE 6 9 30.02 1016 6 10 0.01 0.25
1:53 pm 13:53 Cloudy with Light Rain 72 22.2 69 20.6 91 91 SSE 3 6 30.00 1016 10 16 0.03 0.76
2:20 pm 14:20 Cloudy with Light Rain 72 22.2 69 20.6 91 91 ESE 3 6 30.01 1016 3 4 0.07 1.78
2:22 pm 14:22 Cloudy with Light Rain 72 22.2 69 20.6 91 91 VRB 3 6 30.01 1016 3 5 0.07 1.78
2:30 pm 14:30 Cloudy 72 22.2 70 21.1 94 94 Calm 30.00 1016 10 16 0.07 1.78
2:36 pm 14:36 Cloudy with Light Rain 72 22.2 70 21.1 94 94 Calm 30.00 1016 10 16 0.07 1.78
2:53 pm 14:53 Cloudy with Light Rain 72 22.2 70 21.1 94 94 ENE 3 6 29.96 1015 5 8 0.08 2.03
3:50 pm 15:50 Cloudy 72 22 70 21 94 94 VRB 6 9 29.95 1014 10 16 0.03 0.76
3:53 pm 15:53 Cloudy 72 22.2 69 20.6 91 91 E 8 13 29.93 1014 10 16 0.03 0.76
4:09 pm 16:09 Cloudy 72 22.2 69 20.6 91 91 E 5 7 29.94 1014 10 16 0.00 0.00
4:34 pm 16:34 Cloudy with Light Rain 72 22.2 69 20.6 91 91 E 5 7 29.94 1014 10 16 0.01 0.25
4:42 pm 16:42 Cloudy with Light Rain 72 22.2 69 20.6 91 91 E 5 7 29.93 1013 10 16 0.01 0.25
4:49 pm 16:49 Cloudy with Light Rain 72 22 70 21 94 94 VRB 5 7 29.93 1013 8 13 0.02 0.51
4:53 pm 16:53 Cloudy with Heavy Rain 71 21.7 69 20.6 94 94 E 6 9 29.91 1013 3 5 0.05 1.27
5:00 pm 17:00 Cloudy with Rain 71 21.7 69 20.6 94 94 ESE 3 6 29.92 1013 2 3 0.04 1.02
5:12 pm 17:12 Cloudy with Rain 71 21.7 69 20.6 94 94 E 7 11 29.92 1013 2 2 0.11 2.79
5:27 pm 17:27 Cloudy with Heavy Rain 71 21.7 70 21.1 96 96 VRB 6 9 29.94 1014 1 1 0.29 7.37
5:31 pm 17:31 Cloudy with Light Rain 72 22.2 70 21.1 94 94 VRB 3 6 29.95 1014 1 2 0.29 7.37
5:35 pm 17:35 Cloudy with Light Rain 72 22.2 70 21.1 94 94 Calm 29.95 1014 2 3 0.33 8.38
5:37 pm 17:37 Cloudy with Rain 72 22.2 70 21.1 94 94 Calm 29.95 1014 1 1 0.43 10.92
5:46 pm 17:46 Cloudy with Heavy Rain 72 22.2 70 21.1 94 94 SSW 8 13 29.94 1014 0 0 0.82 20.83
5:51 pm 17:51 Cloudy with Heavy Rain 72 22 70 21 94 94 VRB 5 7 29.94 1014 1 1 0.88 22.35
5:53 pm 17:53 Cloudy with Heavy Rain 72 22.2 69 20.6 91 91 VRB 6 9 29.93 1014 1 1 0.92 23.37
6:03 pm 18:03 Cloudy with Light Rain 72 22.2 69 20.6 91 91 SSW 6 9 29.94 1014 2 3 0.03 0.76
6:22 pm 18:22 Cloudy with Light Rain 71 21.7 69 20.6 94 94 S 5 7 29.95 1014 2 3 0.10 2.54
6:27 pm 18:27 Cloudy with Light Rain 72 22.2 69 20.6 91 91 undefined N/A 29.95 1014 3 5 0.11 2.79
6:53 pm 18:53 Cloudy 72 22.2 69 20.6 91 91 Calm 29.94 1014 10 16 0.11 2.79
7:50 pm 19:50 Cloudy 72 22 70 21 94 94 Calm 29.96 1014 10 16 0.00 0.00
7:53 pm 19:53 Cloudy 71 21.7 69 20.6 94 94 Calm 29.94 1014 10 16 0.00 0.00
8:34 pm 20:34 Cloudy 71 21.7 69 20.6 94 94 Calm 29.95 1014 10 16 0.00 0.00
8:53 pm 20:53 Cloudy 72 22.2 70 21.1 94 94 SSE 5 7 29.93 1014 10 16 0.00 0.00
9:16 pm 21:16 Cloudy 73 22.8 70 21.1 90 90 S 6 9 29.95 1014 10 16 0.00 0.00
9:53 pm 21:53 Mostly Cloudy 72 22.2 70 21.1 94 94 SSE 3 6 29.93 1014 10 16 0.00 0.00
10:10 pm 22:10 Mostly Cloudy 72 22.2 70 21.1 94 94 SE 3 6 29.95 1014 10 16 0.00 0.00
10:53 pm 22:53 Cloudy 73 22.8 70 21.1 90 90 SSE 8 13 29.94 1014 8 13 0.00 0.00
11:42 pm 23:42 Cloudy with Mist and Fog 73 22.8 70 21.1 90 90 SSE 6 9 29.95 1014 6 10 0.00 0.00
11:53 pm 23:53 Cloudy 73 22.8 70 21.1 90 90 SSE 6 9 29.93 1014 8 13 0.00 0.00

Powered by AerisWeather